| time (UTC) | temp F | wind direction | speed MPH | gust MPH | rain 1hr in | rain 24hr in | rain mn in | humidity % | barometer mb |
| 20260509054549 | 55 | 0 | 0.0 | 0.0 | 0.00 | 0.00 | 0.00 | 69 | 1014.4 |
| 20260509054022 | 55 | 0 | 0.0 | 0.0 | 0.00 | 0.00 | 0.00 | 68 | 1014.5 |
| 20260509053523 | 56 | 0 | 0.0 | 0.0 | 0.00 | 0.00 | 0.00 | 67 | 1014.4 |
| 20260509053053 | 56 | 0 | 0.0 | 0.0 | 0.00 | 0.00 | 0.00 | 67 | 1014.4 |
| 20260509052527 | 56 | 0 | 0.0 | 0.0 | 0.00 | 0.00 | 0.00 | 67 | 1014.5 |
| 20260509052023 | 56 | 0 | 0.0 | 0.0 | 0.00 | 0.00 | 0.00 | 67 | 1014.6 |
| 20260509051538 | 56 | 0 | 0.0 | 0.0 | 0.00 | 0.00 | 0.00 | 67 | 1014.6 |
| 20260509051027 | 56 | 0 | 0.0 | 0.0 | 0.00 | 0.00 | 0.00 | 66 | 1014.6 |
| 20260509050524 | 57 | 0 | 0.0 | 0.0 | 0.00 | 0.00 | 0.00 | 65 | 1014.6 |
| 20260509050037 | 57 | 0 | 0.0 | 0.0 | 0.00 | 0.00 | 0.00 | 65 | 1014.7 |
| 20260509045526 | 57 | 0 | 0.0 | 0.0 | 0.00 | 0.00 | 0.00 | 65 | 1014.8 |
| 20260509045024 | 57 | 0 | 0.0 | 0.0 | 0.00 | 0.00 | 0.00 | 65 | 1014.8 |
| 20260509044545 | 57 | 0 | 0.0 | 0.0 | 0.00 | 0.00 | 0.00 | 64 | 1014.9 |
| 20260509044023 | 58 | 0 | 0.0 | 0.0 | 0.00 | 0.00 | 0.00 | 64 | 1014.9 |
| 20260509043523 | 58 | 0 | 0.0 | 0.0 | 0.00 | 0.00 | 0.00 | 63 | 1015.0 |
| 20260509043037 | 58 | 0 | 0.0 | 0.0 | 0.00 | 0.00 | 0.00 | 63 | 1015.1 |
| 20260509042523 | 58 | 0 | 0.0 | 0.0 | 0.00 | 0.00 | 0.00 | 63 | 1015.2 |
| 20260509042023 | 58 | 0 | 0.0 | 0.0 | 0.00 | 0.00 | 0.00 | 63 | 1015.2 |
| 20260509041539 | 59 | 0 | 0.0 | 0.0 | 0.00 | 0.00 | 0.00 | 62 | 1015.3 |
| 20260509041023 | 59 | 0 | 0.0 | 1.0 | 0.00 | 0.00 | 0.00 | 61 | 1015.4 |
| 20260509040523 | 59 | 0 | 0.0 | 1.0 | 0.00 | 0.00 | 0.00 | 61 | 1015.4 |
| 20260509040038 | 59 | 0 | 0.0 | 1.0 | 0.00 | 0.00 | 0.00 | 61 | 1015.5 |
| 20260509035524 | 59 | 0 | 0.0 | 0.0 | 0.00 | 0.00 | 0.00 | 60 | 1015.4 |
| 20260509035023 | 59 | 0 | 0.0 | 0.0 | 0.00 | 0.00 | 0.00 | 60 | 1015.5 |
| 20260509034539 | 59 | 0 | 0.0 | 0.0 | 0.00 | 0.00 | 0.00 | 60 | 1015.6 |
| 20260509034026 | 59 | 0 | 0.0 | 0.0 | 0.00 | 0.00 | 0.00 | 60 | 1015.6 |
| 20260509033524 | 59 | 0 | 0.0 | 0.0 | 0.00 | 0.00 | 0.00 | 61 | 1015.6 |
| 20260509033039 | 59 | 0 | 0.0 | 1.0 | 0.00 | 0.00 | 0.00 | 61 | 1015.8 |
| 20260509032525 | 59 | 0 | 0.0 | 1.0 | 0.00 | 0.00 | 0.00 | 61 | 1015.9 |
| 20260509032023 | 59 | 0 | 0.0 | 0.0 | 0.00 | 0.00 | 0.00 | 62 | 1015.9 |
| 20260509031540 | 59 | 0 | 0.0 | 0.0 | 0.00 | 0.00 | 0.00 | 62 | 1015.7 |
| 20260509031024 | 59 | 0 | 0.0 | 0.0 | 0.00 | 0.00 | 0.00 | 63 | 1015.6 |
| 20260509030526 | 59 | 0 | 0.0 | 0.0 | 0.00 | 0.00 | 0.00 | 62 | 1015.8 |
| 20260509030038 | 59 | 0 | 0.0 | 0.0 | 0.00 | 0.00 | 0.00 | 62 | 1015.7 |
| 20260509025523 | 59 | 0 | 0.0 | 0.0 | 0.00 | 0.00 | 0.00 | 62 | 1015.6 |
| 20260509025024 | 59 | 0 | 0.0 | 0.0 | 0.00 | 0.00 | 0.00 | 62 | 1015.7 |
| 20260509024537 | 59 | 0 | 0.0 | 0.0 | 0.00 | 0.00 | 0.00 | 62 | 1015.6 |
| 20260509024023 | 59 | 0 | 0.0 | 0.0 | 0.00 | 0.00 | 0.00 | 62 | 1015.5 |
| 20260509023523 | 59 | 0 | 0.0 | 0.0 | 0.00 | 0.00 | 0.00 | 62 | 1015.6 |
| 20260509023040 | 59 | 0 | 0.0 | 0.0 | 0.00 | 0.00 | 0.00 | 62 | 1015.6 |
| 20260509022525 | 59 | 0 | 0.0 | 0.0 | 0.00 | 0.00 | 0.00 | 61 | 1015.5 |
| 20260509022024 | 59 | 0 | 0.0 | 0.0 | 0.00 | 0.00 | 0.00 | 61 | 1015.6 |
| 20260509021538 | 60 | 0 | 0.0 | 0.0 | 0.00 | 0.00 | 0.00 | 61 | 1015.6 |
| 20260509021025 | 60 | 0 | 0.0 | 0.0 | 0.00 | 0.00 | 0.00 | 61 | 1015.7 |
| 20260509020526 | 60 | 0 | 0.0 | 0.0 | 0.00 | 0.00 | 0.00 | 60 | 1015.6 |
| 20260509020039 | 60 | 0 | 0.0 | 0.0 | 0.00 | 0.00 | 0.00 | 60 | 1015.4 |
| 20260509015526 | 61 | 0 | 0.0 | 0.0 | 0.00 | 0.00 | 0.00 | 59 | 1015.4 |
| 20260509015024 | 61 | 0 | 0.0 | 0.0 | 0.00 | 0.00 | 0.00 | 59 | 1015.5 |
| 20260509014540 | 61 | 0 | 0.0 | 0.0 | 0.00 | 0.00 | 0.00 | 57 | 1015.5 |
| 20260509014030 | 61 | 0 | 0.0 | 0.0 | 0.00 | 0.00 | 0.00 | 58 | 1015.3 |
| 20260509013523 | 61 | 0 | 0.0 | 0.0 | 0.00 | 0.00 | 0.00 | 57 | 1015.3 |
| 20260509013038 | 61 | 0 | 0.0 | 0.0 | 0.00 | 0.00 | 0.00 | 57 | 1015.3 |
| 20260509012523 | 61 | 0 | 0.0 | 0.0 | 0.00 | 0.00 | 0.00 | 56 | 1015.1 |
| 20260509012022 | 61 | 0 | 0.0 | 0.0 | 0.00 | 0.00 | 0.00 | 57 | 1015.2 |
| 20260509011543 | 62 | 0 | 0.0 | 0.0 | 0.00 | 0.00 | 0.00 | 56 | 1015.1 |
| 20260509011023 | 62 | 0 | 0.0 | 0.0 | 0.00 | 0.00 | 0.00 | 56 | 1015.1 |
| 20260509010523 | 62 | 0 | 0.0 | 0.0 | 0.00 | 0.00 | 0.00 | 56 | 1015.2 |
| 20260509010041 | 62 | 0 | 0.0 | 1.0 | 0.00 | 0.00 | 0.00 | 55 | 1015.1 |
| 20260509005523 | 62 | 0 | 0.0 | 1.0 | 0.00 | 0.00 | 0.00 | 55 | 1015.0 |
| 20260509005023 | 62 | 127 | 0.0 | 1.0 | 0.00 | 0.00 | 0.00 | 55 | 1015.0 |
| 20260509004541 | 62 | 0 | 0.0 | 1.0 | 0.00 | 0.00 | 0.00 | 55 | 1015.0 |
| 20260509004023 | 62 | 0 | 0.0 | 2.0 | 0.00 | 0.00 | 0.00 | 55 | 1015.1 |
| 20260509003526 | 63 | 0 | 0.0 | 2.0 | 0.00 | 0.00 | 0.00 | 54 | 1014.8 |
| 20260509003042 | 63 | 0 | 0.0 | 2.0 | 0.00 | 0.00 | 0.00 | 54 | 1015.0 |
| 20260509002522 | 63 | 107 | 0.0 | 3.0 | 0.00 | 0.00 | 0.00 | 54 | 1015.0 |
| 20260509002022 | 63 | 0 | 0.0 | 3.0 | 0.00 | 0.00 | 0.00 | 53 | 1015.1 |
| 20260509001538 | 63 | 98 | 1.0 | 3.0 | 0.00 | 0.00 | 0.00 | 53 | 1015.1 |
| 20260509001023 | 64 | 0 | 0.0 | 2.0 | 0.00 | 0.00 | 0.00 | 53 | 1015.2 |
| 20260509000523 | 64 | 98 | 1.0 | 5.0 | 0.00 | 0.00 | 0.00 | 52 | 1015.0 |
| 20260509000037 | 64 | 131 | 1.0 | 5.0 | 0.00 | 0.00 | 0.00 | 53 | 1015.0 |
| 20260508235526 | 64 | 96 | 2.0 | 5.0 | 0.00 | 0.00 | 0.00 | 52 | 1015.0 |
| 20260508235024 | 64 | 110 | 1.0 | 3.0 | 0.00 | 0.00 | 0.00 | 53 | 1014.8 |
| 20260508234546 | 64 | 107 | 0.0 | 2.0 | 0.00 | 0.00 | 0.00 | 53 | 1015.0 |
| 20260508234024 | 65 | 0 | 0.0 | 2.0 | 0.00 | 0.00 | 0.00 | 53 | 1015.0 |
| 20260508233523 | 65 | 109 | 0.0 | 2.0 | 0.00 | 0.00 | 0.00 | 52 | 1015.0 |
| 20260508233041 | 65 | 108 | 1.0 | 2.0 | 0.00 | 0.00 | 0.00 | 52 | 1014.8 |
| 20260508232522 | 65 | 105 | 0.0 | 2.0 | 0.00 | 0.00 | 0.00 | 52 | 1014.7 |
| 20260508232023 | 65 | 108 | 1.0 | 2.0 | 0.00 | 0.00 | 0.00 | 51 | 1014.9 |
| 20260508231555 | 65 | 0 | 0.0 | 2.0 | 0.00 | 0.00 | 0.00 | 51 | 1015.1 |
| 20260508231025 | 66 | 0 | 0.0 | 2.0 | 0.00 | 0.00 | 0.00 | 51 | 1015.0 |
| 20260508230525 | 66 | 80 | 1.0 | 3.0 | 0.00 | 0.00 | 0.00 | 50 | 1015.0 |
| 20260508230048 | 66 | 0 | 0.0 | 3.0 | 0.00 | 0.00 | 0.00 | 51 | 1014.9 |
| 20260508225525 | 66 | 103 | 1.0 | 2.0 | 0.00 | 0.00 | 0.00 | 50 | 1014.9 |
| 20260508225024 | 66 | 0 | 0.0 | 2.0 | 0.00 | 0.00 | 0.00 | 50 | 1014.9 |
| 20260508224538 | 66 | 86 | 0.0 | 6.0 | 0.00 | 0.00 | 0.00 | 49 | 1014.9 |
| 20260508224023 | 66 | 123 | 2.0 | 6.0 | 0.00 | 0.00 | 0.00 | 49 | 1014.9 |
| 20260508223523 | 67 | 109 | 0.0 | 5.0 | 0.00 | 0.00 | 0.00 | 48 | 1014.8 |
| 20260508223042 | 67 | 115 | 1.0 | 5.0 | 0.00 | 0.00 | 0.00 | 48 | 1014.9 |
| 20260508222524 | 67 | 115 | 2.0 | 5.0 | 0.00 | 0.00 | 0.00 | 48 | 1014.9 |
| 20260508222023 | 67 | 146 | 2.0 | 4.0 | 0.00 | 0.00 | 0.00 | 46 | 1014.8 |
| 20260508221541 | 67 | 78 | 2.0 | 3.0 | 0.00 | 0.00 | 0.00 | 46 | 1014.8 |
| 20260508221023 | 68 | 0 | 0.0 | 3.0 | 0.00 | 0.00 | 0.00 | 46 | 1014.8 |
| 20260508220522 | 67 | 93 | 1.0 | 4.0 | 0.00 | 0.00 | 0.00 | 46 | 1014.6 |
| 20260508220043 | 67 | 87 | 1.0 | 4.0 | 0.00 | 0.00 | 0.00 | 44 | 1014.7 |
| 20260508215526 | 67 | 105 | 1.0 | 6.0 | 0.00 | 0.00 | 0.00 | 44 | 1014.7 |
| 20260508215023 | 68 | 107 | 1.0 | 6.0 | 0.00 | 0.00 | 0.00 | 44 | 1014.8 |
| 20260508214550 | 68 | 96 | 3.0 | 5.0 | 0.00 | 0.00 | 0.00 | 43 | 1014.6 |
| 20260508214023 | 68 | 111 | 1.0 | 3.0 | 0.00 | 0.00 | 0.00 | 46 | 1014.8 |
| 20260508213523 | 68 | 0 | 1.0 | 4.0 | 0.00 | 0.00 | 0.00 | 43 | 1014.7 |
| 20260508213046 | 68 | 91 | 1.0 | 4.0 | 0.00 | 0.00 | 0.00 | 43 | 1014.6 |
| 20260508212524 | 68 | 92 | 0.0 | 8.0 | 0.00 | 0.00 | 0.00 | 42 | 1014.5 |
| 20260508212023 | 69 | 94 | 3.0 | 8.0 | 0.00 | 0.00 | 0.00 | 42 | 1014.7 |
| 20260508211541 | 69 | 116 | 0.0 | 6.0 | 0.00 | 0.00 | 0.00 | 42 | 1014.7 |
| 20260508211023 | 69 | 90 | 2.0 | 7.0 | 0.00 | 0.00 | 0.00 | 41 | 1014.6 |
| 20260508210523 | 70 | 0 | 1.0 | 7.0 | 0.00 | 0.00 | 0.00 | 41 | 1014.9 |
| 20260508210045 | 70 | 138 | 1.0 | 3.0 | 0.00 | 0.00 | 0.00 | 41 | 1015.0 |
| 20260508205523 | 69 | 252 | 0.0 | 5.0 | 0.00 | 0.00 | 0.00 | 41 | 1014.9 |
| 20260508205025 | 69 | 245 | 0.0 | 10.0 | 0.00 | 0.00 | 0.00 | 41 | 1014.6 |
| 20260508204540 | 69 | 110 | 3.0 | 10.0 | 0.00 | 0.00 | 0.00 | 40 | 1014.7 |
| 20260508204022 | 69 | 110 | 3.0 | 7.0 | 0.00 | 0.00 | 0.00 | 40 | 1014.6 |
| 20260508203522 | 69 | 124 | 3.0 | 5.0 | 0.00 | 0.00 | 0.00 | 39 | 1014.9 |
| 20260508203038 | 70 | 96 | 1.0 | 5.0 | 0.00 | 0.00 | 0.00 | 39 | 1014.7 |
| 20260508202523 | 71 | 96 | 1.0 | 5.0 | 0.00 | 0.00 | 0.00 | 39 | 1015.0 |
| 20260508202023 | 71 | 267 | 0.0 | 3.0 | 0.00 | 0.00 | 0.00 | 37 | 1015.1 |
| 20260508201538 | 70 | 149 | 0.0 | 7.0 | 0.00 | 0.00 | 0.00 | 40 | 1015.1 |
| 20260508201022 | 70 | 174 | 4.0 | 7.0 | 0.00 | 0.00 | 0.00 | 39 | 1015.2 |
| 20260508200522 | 71 | 98 | 1.0 | 6.0 | 0.00 | 0.00 | 0.00 | 37 | 1015.2 |
| 20260508200038 | 72 | 126 | 1.0 | 5.0 | 0.00 | 0.00 | 0.00 | 35 | 1015.3 |
| 20260508195523 | 72 | 203 | 1.0 | 7.0 | 0.00 | 0.00 | 0.00 | 37 | 1015.2 |
| 20260508195024 | 71 | 110 | 0.0 | 7.0 | 0.00 | 0.00 | 0.00 | 39 | 1015.4 |
| 20260508194556 | 71 | 96 | 2.0 | 7.0 | 0.00 | 0.00 | 0.00 | 35 | 1015.3 |
| 20260508194022 | 72 | 0 | 2.0 | 7.0 | 0.00 | 0.00 | 0.00 | 35 | 1015.5 |
| 20260508193523 | 74 | 142 | 1.0 | 4.0 | 0.00 | 0.00 | 0.00 | 32 | 1015.6 |
| 20260508193048 | 74 | 144 | 0.0 | 4.0 | 0.00 | 0.00 | 0.00 | 34 | 1015.8 |
| 20260508192523 | 73 | 138 | 1.0 | 4.0 | 0.00 | 0.00 | 0.00 | 34 | 1015.8 |
| 20260508192023 | 73 | 250 | 1.0 | 5.0 | 0.00 | 0.00 | 0.00 | 34 | 1015.9 |
| 20260508191540 | 74 | 257 | 0.0 | 5.0 | 0.00 | 0.00 | 0.00 | 31 | 1015.9 |
| 20260508191022 | 74 | 155 | 0.0 | 4.0 | 0.00 | 0.00 | 0.00 | 34 | 1016.0 |
| 20260508190525 | 73 | 292 | 1.0 | 4.0 | 0.00 | 0.00 | 0.00 | 32 | 1016.0 |
| 20260508190037 | 72 | 210 | 0.0 | 5.0 | 0.00 | 0.00 | 0.00 | 36 | 1016.1 |
| 20260508185524 | 71 | 288 | 1.0 | 7.0 | 0.00 | 0.00 | 0.00 | 35 | 1016.1 |
| 20260508185022 | 70 | 107 | 1.0 | 8.0 | 0.00 | 0.00 | 0.00 | 39 | 1016.1 |
| 20260508184538 | 70 | 106 | 2.0 | 8.0 | 0.00 | 0.00 | 0.00 | 35 | 1016.2 |
| 20260508184023 | 70 | 138 | 2.0 | 7.0 | 0.00 | 0.00 | 0.00 | 39 | 1016.3 |
| 20260508183523 | 68 | 160 | 3.0 | 8.0 | 0.00 | 0.00 | 0.00 | 39 | 1016.4 |
| 20260508183038 | 68 | 86 | 4.0 | 8.0 | 0.00 | 0.00 | 0.00 | 40 | 1016.5 |
| 20260508182523 | 70 | 91 | 4.0 | 8.0 | 0.00 | 0.00 | 0.00 | 35 | 1016.7 |
| 20260508182024 | 71 | 96 | 2.0 | 6.0 | 0.00 | 0.00 | 0.00 | 36 | 1016.5 |
| 20260508181543 | 72 | 88 | 2.0 | 6.0 | 0.00 | 0.00 | 0.00 | 35 | 1016.7 |
| 20260508181023 | 71 | 102 | 2.0 | 8.0 | 0.00 | 0.00 | 0.00 | 33 | 1016.7 |
| 20260508180523 | 70 | 85 | 2.0 | 8.0 | 0.00 | 0.00 | 0.00 | 37 | 1016.8 |
| 20260508180039 | 69 | 238 | 1.0 | 6.0 | 0.00 | 0.00 | 0.00 | 37 | 1016.7 |
| 20260508175523 | 69 | 115 | 2.0 | 6.0 | 0.00 | 0.00 | 0.00 | 35 | 1017.0 |
| 20260508175024 | 71 | 127 | 4.0 | 6.0 | 0.00 | 0.00 | 0.00 | 34 | 1017.1 |
| 20260508174539 | 72 | 100 | 1.0 | 4.0 | 0.00 | 0.00 | 0.00 | 35 | 1017.1 |
| 20260508174022 | 73 | 139 | 0.0 | 2.0 | 0.00 | 0.00 | 0.00 | 33 | 1017.1 |
| 20260508173523 | 72 | 103 | 1.0 | 6.0 | 0.00 | 0.00 | 0.00 | 34 | 1017.2 |
| 20260508173037 | 71 | 275 | 0.0 | 7.0 | 0.00 | 0.00 | 0.00 | 38 | 1017.1 |
| 20260508172524 | 70 | 111 | 1.0 | 7.0 | 0.00 | 0.00 | 0.00 | 37 | 1017.3 |
| 20260508172023 | 70 | 294 | 2.0 | 7.0 | 0.00 | 0.00 | 0.00 | 37 | 1017.2 |
| 20260508171538 | 69 | 110 | 1.0 | 11.0 | 0.00 | 0.00 | 0.00 | 35 | 1017.3 |
| 20260508171029 | 69 | 106 | 6.0 | 11.0 | 0.00 | 0.00 | 0.00 | 39 | 1017.6 |
| 20260508170523 | 70 | 117 | 2.0 | 8.0 | 0.00 | 0.00 | 0.00 | 37 | 1017.6 |
| 20260508170037 | 70 | 122 | 4.0 | 8.0 | 0.00 | 0.00 | 0.00 | 36 | 1017.6 |
| 20260508165522 | 69 | 249 | 0.0 | 12.0 | 0.00 | 0.00 | 0.00 | 38 | 1017.8 |
| 20260508165023 | 67 | 140 | 5.0 | 12.0 | 0.00 | 0.00 | 0.00 | 38 | 1017.9 |
| 20260508164542 | 69 | 124 | 4.0 | 9.0 | 0.00 | 0.00 | 0.00 | 38 | 1017.9 |
| 20260508164023 | 68 | 285 | 1.0 | 9.0 | 0.00 | 0.00 | 0.00 | 42 | 1017.9 |
| 20260508163522 | 68 | 108 | 5.0 | 11.0 | 0.00 | 0.00 | 0.00 | 38 | 1018.1 |
| 20260508163040 | 68 | 94 | 3.0 | 11.0 | 0.00 | 0.00 | 0.00 | 41 | 1018.2 |
| 20260508162523 | 68 | 86 | 6.0 | 11.0 | 0.00 | 0.00 | 0.00 | 39 | 1018.2 |
| 20260508162022 | 68 | 102 | 1.0 | 11.0 | 0.00 | 0.00 | 0.00 | 40 | 1018.2 |
| 20260508161537 | 68 | 69 | 4.0 | 11.0 | 0.00 | 0.00 | 0.00 | 40 | 1018.4 |
| 20260508161023 | 70 | 101 | 1.0 | 6.0 | 0.00 | 0.00 | 0.00 | 36 | 1018.4 |
| 20260508160523 | 70 | 266 | 1.0 | 5.0 | 0.00 | 0.00 | 0.00 | 37 | 1018.3 |
| 20260508160038 | 69 | 251 | 1.0 | 5.0 | 0.00 | 0.00 | 0.00 | 36 | 1018.3 |
| 20260508155526 | 69 | 109 | 3.0 | 5.0 | 0.00 | 0.00 | 0.00 | 36 | 1018.4 |
| 20260508155023 | 69 | 13 | 1.0 | 5.0 | 0.00 | 0.00 | 0.00 | 38 | 1018.3 |
| 20260508154539 | 68 | 95 | 2.0 | 5.0 | 0.00 | 0.00 | 0.00 | 39 | 1018.4 |
| 20260508154022 | 68 | 169 | 0.0 | 4.0 | 0.00 | 0.00 | 0.00 | 39 | 1018.5 |
| 20260508153523 | 67 | 285 | 1.0 | 5.0 | 0.00 | 0.00 | 0.00 | 39 | 1018.6 |
| 20260508153038 | 67 | 90 | 1.0 | 8.0 | 0.00 | 0.00 | 0.00 | 41 | 1018.7 |
| 20260508152523 | 67 | 0 | 0.0 | 8.0 | 0.00 | 0.00 | 0.00 | 41 | 1018.7 |
| 20260508152025 | 66 | 129 | 4.0 | 8.0 | 0.00 | 0.00 | 0.00 | 39 | 1018.8 |
| 20260508151539 | 66 | 103 | 4.0 | 7.0 | 0.00 | 0.00 | 0.00 | 37 | 1018.8 |
| 20260508151024 | 67 | 52 | 2.0 | 6.0 | 0.00 | 0.00 | 0.00 | 39 | 1018.8 |
| 20260508150524 | 67 | 91 | 1.0 | 10.0 | 0.00 | 0.00 | 0.00 | 42 | 1018.8 |
| 20260508150037 | 66 | 108 | 1.0 | 10.0 | 0.00 | 0.00 | 0.00 | 40 | 1018.8 |
| 20260508145523 | 65 | 94 | 2.0 | 10.0 | 0.00 | 0.00 | 0.00 | 41 | 1018.7 |
| 20260508145023 | 66 | 136 | 3.0 | 6.0 | 0.00 | 0.00 | 0.00 | 40 | 1018.7 |
| 20260508144542 | 65 | 34 | 2.0 | 7.0 | 0.00 | 0.00 | 0.00 | 43 | 1018.7 |
| 20260508144023 | 65 | 110 | 3.0 | 7.0 | 0.00 | 0.00 | 0.00 | 41 | 1018.7 |
| 20260508143523 | 67 | 90 | 3.0 | 7.0 | 0.00 | 0.00 | 0.00 | 40 | 1018.6 |
| 20260508143041 | 66 | 0 | 0.0 | 7.0 | 0.00 | 0.00 | 0.00 | 47 | 1018.6 |
| 20260508142523 | 65 | 98 | 3.0 | 7.0 | 0.00 | 0.00 | 0.00 | 44 | 1018.6 |
| 20260508142023 | 66 | 105 | 2.0 | 7.0 | 0.00 | 0.00 | 0.00 | 44 | 1018.6 |
| 20260508141539 | 65 | 0 | 0.0 | 6.0 | 0.00 | 0.00 | 0.00 | 44 | 1018.6 |
| 20260508141023 | 65 | 133 | 1.0 | 6.0 | 0.00 | 0.00 | 0.00 | 45 | 1018.7 |
| 20260508140526 | 64 | 86 | 1.0 | 6.0 | 0.00 | 0.00 | 0.00 | 46 | 1018.9 |
| 20260508140040 | 64 | 81 | 2.0 | 6.0 | 0.00 | 0.00 | 0.00 | 45 | 1018.9 |
| 20260508135526 | 64 | 90 | 3.0 | 6.0 | 0.00 | 0.03 | 0.00 | 46 | 1019.0 |
| 20260508135024 | 64 | 270 | 0.0 | 2.0 | 0.00 | 0.03 | 0.00 | 47 | 1019.1 |
| 20260508134542 | 64 | 301 | 0.0 | 4.0 | 0.00 | 0.03 | 0.00 | 47 | 1019.2 |
| 20260508134023 | 63 | 108 | 1.0 | 4.0 | 0.00 | 0.03 | 0.00 | 50 | 1019.2 |
| 20260508133528 | 63 | 349 | 1.0 | 6.0 | 0.00 | 0.03 | 0.00 | 65 | 1019.2 |
| 20260508133037 | 61 | 0 | 0.0 | 6.0 | 0.00 | 0.03 | 0.00 | 67 | 1019.0 |
| 20260508132523 | 62 | 295 | 0.0 | 1.0 | 0.00 | 0.03 | 0.00 | 65 | 1019.1 |
| 20260508132023 | 61 | 284 | 0.0 | 1.0 | 0.00 | 0.03 | 0.00 | 65 | 1019.1 |
| 20260508131540 | 60 | 29 | 0.0 | 2.0 | 0.00 | 0.03 | 0.00 | 68 | 1019.1 |
| 20260508131023 | 59 | 0 | 0.0 | 2.0 | 0.00 | 0.03 | 0.00 | 69 | 1019.1 |
| 20260508130522 | 59 | 309 | 0.0 | 1.0 | 0.00 | 0.03 | 0.00 | 71 | 1019.0 |
| 20260508130039 | 59 | 354 | 0.0 | 1.0 | 0.00 | 0.03 | 0.00 | 72 | 1019.0 |
| 20260508125523 | 59 | 0 | 0.0 | 2.0 | 0.00 | 0.11 | 0.00 | 76 | 1018.9 |
| 20260508125023 | 58 | 0 | 0.0 | 2.0 | 0.00 | 0.11 | 0.00 | 77 | 1018.9 |
| 20260508124537 | 57 | 346 | 0.0 | 1.0 | 0.00 | 0.11 | 0.00 | 79 | 1018.8 |
| 20260508124022 | 57 | 0 | 0.0 | 1.0 | 0.00 | 0.11 | 0.00 | 78 | 1018.6 |
| 20260508123522 | 56 | 0 | 0.0 | 1.0 | 0.00 | 0.11 | 0.00 | 80 | 1018.5 |
| 20260508123037 | 55 | 0 | 0.0 | 1.0 | 0.00 | 0.11 | 0.00 | 81 | 1018.5 |
| 20260508122523 | 55 | 0 | 0.0 | 2.0 | 0.00 | 0.11 | 0.00 | 82 | 1018.4 |
| 20260508122022 | 54 | 335 | 0.0 | 2.0 | 0.00 | 0.11 | 0.00 | 83 | 1018.4 |
| 20260508121541 | 54 | 303 | 0.0 | 1.0 | 0.00 | 0.11 | 0.00 | 85 | 1018.3 |
| 20260508121024 | 54 | 0 | 0.0 | 1.0 | 0.00 | 0.11 | 0.00 | 85 | 1018.3 |
| 20260508120523 | 53 | 0 | 0.0 | 1.0 | 0.00 | 0.11 | 0.00 | 85 | 1018.1 |
| 20260508120042 | 53 | 0 | 0.0 | 1.0 | 0.00 | 0.11 | 0.00 | 86 | 1018.1 |
| 20260508115523 | 53 | 0 | 0.0 | 1.0 | 0.00 | 0.22 | 0.00 | 86 | 1017.9 |
| 20260508115022 | 52 | 0 | 0.0 | 1.0 | 0.00 | 0.22 | 0.00 | 86 | 1017.9 |
| 20260508114546 | 52 | 0 | 0.0 | 1.0 | 0.00 | 0.22 | 0.00 | 86 | 1018.0 |
| 20260508114023 | 51 | 0 | 0.0 | 0.0 | 0.00 | 0.22 | 0.00 | 85 | 1017.9 |
| 20260508113523 | 51 | 0 | 0.0 | 0.0 | 0.00 | 0.22 | 0.00 | 85 | 1017.7 |
| 20260508113043 | 50 | 0 | 0.0 | 1.0 | 0.00 | 0.22 | 0.00 | 85 | 1017.7 |
| 20260508112523 | 50 | 0 | 0.0 | 1.0 | 0.00 | 0.22 | 0.00 | 85 | 1017.7 |
| 20260508112023 | 50 | 288 | 0.0 | 0.0 | 0.00 | 0.22 | 0.00 | 85 | 1017.5 |
| 20260508111551 | 49 | 0 | 0.0 | 1.0 | 0.00 | 0.22 | 0.00 | 85 | 1017.4 |
| 20260508111024 | 49 | 0 | 0.0 | 1.0 | 0.00 | 0.22 | 0.00 | 85 | 1017.2 |
| 20260508110523 | 49 | 0 | 0.0 | 0.0 | 0.00 | 0.22 | 0.00 | 85 | 1017.1 |
| 20260508110037 | 49 | 0 | 0.0 | 1.0 | 0.00 | 0.22 | 0.00 | 85 | 1017.0 |
| 20260508105523 | 49 | 0 | 0.0 | 1.0 | 0.00 | 0.36 | 0.00 | 84 | 1017.0 |
| 20260508105022 | 49 | 0 | 0.0 | 0.0 | 0.00 | 0.36 | 0.00 | 84 | 1016.9 |
| 20260508104541 | 49 | 0 | 0.0 | 0.0 | 0.00 | 0.36 | 0.00 | 84 | 1016.8 |
| 20260508104023 | 49 | 0 | 0.0 | 0.0 | 0.00 | 0.36 | 0.00 | 84 | 1016.7 |
| 20260508103523 | 49 | 0 | 0.0 | 1.0 | 0.00 | 0.36 | 0.00 | 84 | 1016.7 |
| 20260508103039 | 49 | 0 | 0.0 | 1.0 | 0.00 | 0.36 | 0.00 | 84 | 1016.6 |
| 20260508102522 | 49 | 288 | 0.0 | 0.0 | 0.00 | 0.36 | 0.00 | 84 | 1016.5 |
| 20260508102023 | 49 | 0 | 0.0 | 0.0 | 0.00 | 0.36 | 0.00 | 84 | 1016.4 |
| 20260508101538 | 49 | 0 | 0.0 | 0.0 | 0.00 | 0.36 | 0.00 | 84 | 1016.5 |
| 20260508101023 | 49 | 0 | 0.0 | 0.0 | 0.00 | 0.36 | 0.00 | 84 | 1016.4 |
| 20260508100522 | 49 | 0 | 0.0 | 0.0 | 0.00 | 0.36 | 0.00 | 84 | 1016.2 |
| 20260508100038 | 49 | 0 | 0.0 | 0.0 | 0.00 | 0.36 | 0.00 | 84 | 1016.1 |
| 20260508095522 | 49 | 0 | 0.0 | 0.0 | 0.00 | 0.42 | 0.00 | 83 | 1016.1 |
| 20260508095022 | 49 | 0 | 0.0 | 0.0 | 0.00 | 0.42 | 0.00 | 83 | 1016.0 |
| 20260508094536 | 49 | 0 | 0.0 | 0.0 | 0.00 | 0.42 | 0.00 | 83 | 1015.9 |
| 20260508094023 | 49 | 0 | 0.0 | 1.0 | 0.00 | 0.42 | 0.00 | 83 | 1015.8 |
| 20260508093524 | 49 | 0 | 0.0 | 1.0 | 0.00 | 0.42 | 0.00 | 83 | 1015.7 |
| 20260508093036 | 49 | 0 | 0.0 | 0.0 | 0.00 | 0.42 | 0.00 | 81 | 1015.8 |
| 20260508092525 | 49 | 0 | 0.0 | 0.0 | 0.00 | 0.42 | 0.00 | 80 | 1015.8 |
| 20260508092024 | 49 | 0 | 0.0 | 0.0 | 0.00 | 0.42 | 0.00 | 80 | 1015.7 |
| 20260508091547 | 49 | 0 | 0.0 | 0.0 | 0.00 | 0.42 | 0.00 | 80 | 1015.7 |
| 20260508091023 | 49 | 0 | 0.0 | 0.0 | 0.00 | 0.42 | 0.00 | 79 | 1015.7 |
| 20260508090523 | 49 | 0 | 0.0 | 0.0 | 0.00 | 0.42 | 0.00 | 79 | 1015.5 |
| 20260508090043 | 49 | 0 | 0.0 | 0.0 | 0.00 | 0.42 | 0.00 | 77 | 1015.6 |
| 20260508085522 | 49 | 0 | 0.0 | 0.0 | 0.00 | 0.47 | 0.00 | 75 | 1015.5 |
| 20260508085022 | 49 | 0 | 0.0 | 0.0 | 0.00 | 0.47 | 0.00 | 73 | 1015.4 |
| 20260508084537 | 49 | 0 | 0.0 | 1.0 | 0.00 | 0.47 | 0.00 | 73 | 1015.4 |
| 20260508084025 | 50 | 0 | 0.0 | 1.0 | 0.00 | 0.47 | 0.00 | 73 | 1015.4 |
| 20260508083524 | 50 | 288 | 0.0 | 1.0 | 0.00 | 0.47 | 0.00 | 72 | 1015.3 |
| 20260508083043 | 50 | 0 | 0.0 | 0.0 | 0.00 | 0.47 | 0.00 | 71 | 1015.4 |
| 20260508082523 | 50 | 0 | 0.0 | 1.0 | 0.00 | 0.47 | 0.00 | 70 | 1015.4 |
| 20260508082024 | 50 | 0 | 0.0 | 1.0 | 0.00 | 0.47 | 0.00 | 69 | 1015.3 |
| 20260508081545 | 50 | 288 | 1.0 | 1.0 | 0.00 | 0.47 | 0.00 | 69 | 1015.4 |
| 20260508081023 | 50 | 0 | 0.0 | 0.0 | 0.00 | 0.47 | 0.00 | 68 | 1015.4 |
| 20260508080527 | 51 | 0 | 0.0 | 0.0 | 0.00 | 0.47 | 0.00 | 67 | 1015.3 |
| 20260508080036 | 51 | 0 | 0.0 | 0.0 | 0.00 | 0.47 | 0.00 | 67 | 1015.2 |
| 20260508075523 | 51 | 0 | 0.0 | 0.0 | 0.00 | 0.78 | 0.00 | 67 | 1015.2 |
| 20260508075023 | 51 | 0 | 0.0 | 0.0 | 0.00 | 0.78 | 0.00 | 67 | 1015.3 |
| 20260508074542 | 51 | 0 | 0.0 | 0.0 | 0.00 | 0.78 | 0.00 | 66 | 1015.3 |
| 20260508074023 | 51 | 0 | 0.0 | 1.0 | 0.00 | 0.78 | 0.00 | 66 | 1015.2 |
| 20260508073523 | 51 | 0 | 0.0 | 1.0 | 0.00 | 0.78 | 0.00 | 67 | 1015.3 |
| 20260508073039 | 51 | 0 | 0.0 | 1.0 | 0.00 | 0.78 | 0.00 | 69 | 1015.2 |
| 20260508072522 | 50 | 0 | 0.0 | 1.0 | 0.00 | 0.78 | 0.00 | 70 | 1015.3 |
| 20260508072022 | 50 | 0 | 0.0 | 0.0 | 0.00 | 0.78 | 0.00 | 69 | 1015.3 |
| 20260508071538 | 50 | 0 | 0.0 | 0.0 | 0.00 | 0.78 | 0.00 | 68 | 1015.3 |
| 20260508071023 | 51 | 0 | 0.0 | 0.0 | 0.00 | 0.78 | 0.00 | 68 | 1015.2 |
| 20260508070525 | 51 | 0 | 0.0 | 0.0 | 0.00 | 0.78 | 0.00 | 68 | 1015.3 |
| 20260508070038 | 51 | 0 | 0.0 | 0.0 | 0.00 | 0.78 | 0.00 | 68 | 1015.2 |
| 20260508065525 | 51 | 0 | 0.0 | 0.0 | 0.00 | 0.88 | 0.00 | 68 | 1015.3 |
| 20260508065023 | 51 | 0 | 0.0 | 0.0 | 0.00 | 0.88 | 0.00 | 67 | 1015.2 |
| 20260508064542 | 51 | 0 | 0.0 | 0.0 | 0.00 | 0.88 | 0.00 | 67 | 1015.2 |
| 20260508064026 | 51 | 0 | 0.0 | 0.0 | 0.00 | 0.88 | 0.00 | 66 | 1015.2 |
| 20260508063526 | 52 | 0 | 0.0 | 0.0 | 0.00 | 0.88 | 0.00 | 66 | 1015.1 |
| 20260508063040 | 52 | 0 | 0.0 | 1.0 | 0.00 | 0.88 | 0.00 | 66 | 1015.2 |
| 20260508062522 | 52 | 0 | 0.0 | 1.0 | 0.00 | 0.88 | 0.00 | 66 | 1015.2 |
| 20260508062023 | 52 | 288 | 0.0 | 1.0 | 0.00 | 0.88 | 0.00 | 67 | 1015.2 |
| 20260508061540 | 52 | 0 | 0.0 | 0.0 | 0.00 | 0.88 | 0.00 | 66 | 1015.2 |
| 20260508061028 | 52 | 0 | 0.0 | 0.0 | 0.00 | 0.88 | 0.00 | 66 | 1015.3 |
| 20260508060525 | 52 | 0 | 0.0 | 0.0 | 0.00 | 0.88 | 0.00 | 65 | 1015.3 |
| 20260508060038 | 53 | 0 | 0.0 | 1.0 | 0.00 | 0.88 | 0.00 | 65 | 1015.4 |
| 20260508055522 | 53 | 0 | 0.0 | 1.0 | 0.00 | 1.04 | 0.00 | 66 | 1015.3 |
| 20260508055022 | 52 | 0 | 0.0 | 0.0 | 0.00 | 1.04 | 0.00 | 66 | 1015.3 |